Regional Weather Roundup
Issued by NWS

Home | Current Version | Previous Version | Graphics & Text | Print | Product List | Glossary On
Versions: 1 2 3 4 5 6 7 8 9 10 11 12 13 14 15 16 17 18 19 20 21 22 23 24 25 26 27 28 29 30 31 32 33 34 35 36 37 38 39 40 41 42 43 44 45 46 47 48 49 50
000
ASUS43 KTOP 290959
RWRKS

WEATHER ROUNDUP FOR KANSAS
NATIONAL WEATHER SERVICE GOODLAND KS
500 AM CDT FRI APR 29 2016

NOTE:  "FAIR" INDICATES FEW OR NO CLOUDS BELOW 12,000 FEET WITH NO
SIGNIFICANT WEATHER AND/OR OBSTRUCTIONS TO VISIBILITY.

KSZ001>006-013>018-027>032-041>047-291100-
NORTHWEST KANSAS

CITY           SKY/WX    TMP DP  RH WIND       PRES   REMARKS
GOODLAND       LGT RAIN  39  38  96 E10       30.04S WCI  32
HAYS           CLOUDY    46  37  71 NE12      30.05R
HILL CITY      LGT RAIN  46  43  89 NE6       30.08S
RUSSELL        CLOUDY    46  43  89 NE18      30.01F
$$

KSZ061>065-074>080-084>089-291100-
SOUTHWEST KANSAS

CITY           SKY/WX    TMP DP  RH WIND       PRES   REMARKS
DODGE CITY     RAIN      44  42  93 NE25G33   29.95F FOG
ELKHART          N/A     43  41  93 NE21        N/A
GARDEN CITY    CLOUDY    44  42  93 NE26G35   29.95S
GREAT BEND     CLOUDY    46  39  76 NE15      30.01R
LIBERAL        CLOUDY    46  41  81 NE23      29.88F
$$

KSZ066>073-081>083-090>101-291100-
SOUTHEAST KANSAS

CITY           SKY/WX    TMP DP  RH WIND       PRES   REMARKS
CHANUTE        CLEAR     52  45  77 NE14G22   29.97F
COFFEYVILLE    CLOUDY    53  47  79 NE16      29.94F
HUTCHINSON     CLOUDY    49  47  93 NE13G22   29.95F
MEDICINE LODGE   N/A     51  48  89 NE17G28   29.85F
NEWTON         MOCLDY    48  41  76 NE12      29.97F
PARSONS        PTCLDY    53  47  79 VRB6G16   29.96F
WICHITA INTL   CLOUDY    53  45  74 NE18G25   29.91F
WICHITA JABRA  MOCLDY    50  46  86 NE15G23   29.93F
WINFIELD       PTCLDY    52  46  80 NE14      29.93F
$$

KSZ007>012-019>026-033>040-048>060-102>105-291100-
NORTHEAST KANSAS

CITY           SKY/WX    TMP DP  RH WIND       PRES   REMARKS
CONCORDIA      CLOUDY    46  39  76 N12       30.06S
EMPORIA        CLOUDY    49  44  83 NE16      29.99F
LAWRENCE       MOCLDY    49  44  83 E5        30.04F
MANHATTAN      CLOUDY    50  41  71 VRB7G22   30.06S
OLATHE IND     PTCLDY    49  44  83 NE7       30.03F
OLATHE EXE     PTCLDY    49  44  83 NE8       30.02F
SALINA         CLOUDY    50  44  80 NE13      30.04R
TOPEKA BILLARD MOCLDY    49  44  83 NE7       30.05R
TOPEKA FORBES  CLOUDY    50  45  83 NE5       30.03F
$$




USA.gov is the U.S. government's official web portal to all federal, state and local government web resources and services.